This demonstration page uses our WeatherBlox Daily Observations layout. Learn more.

Hourly Observations for December 27, 2018

Temp ( °F °C ) Dew Point ( °F °C ) Humidity (%) Winds ( mph kmh ) Pressure ( in mb ) Visibility ( mi km ) Precip ( " mm )
12:15 am 00:15 Cloudy with Light Rain 35 1.5 35 1.5 100 100 N 25 41 29.74 1007 7 11.26538 0.01 0.254
12:35 am 00:35 Cloudy with Light Rain 34 1.2 34 1.2 100 100 N 28 44 29.71 1006 5 8.0467 0.02 0.508
12:55 am 00:55 Cloudy with Light Rain 34 1.1 34 1 99 99 N 23 37 29.71 1006 10 16.0934 0.02 0.508
1:15 am 01:15 Cloudy with Light Rain 34 1 33 0.8 99 99 N 25 41 29.71 1006 10 16.0934 0 0
1:35 am 01:35 Cloudy with Light Drizzle 33 0.8 33 0.6 99 99 N 29 46 29.71 1006 10 16.0934 0 0
1:55 am 01:55 Cloudy with Light Drizzle 33 0.6 33 0.5 99 99 N 23 37 29.68 1005 10 16.0934 0 0
2:15 am 02:15 Cloudy with Light Rain 33 0.5 33 0.3 99 99 N 30 48 29.65 1004 10 16.0934 0 0
2:35 am 02:35 Cloudy with Light Wintry Mix 32 0.2 32 0 99 99 N 30 48 29.65 1004 7 11.26538 0 0
2:55 am 02:55 Cloudy with Light Wintry Mix 32 0 31 -0.5 96 96 N 26 43 29.65 1004 10 16.0934 0 0
3:15 am 03:15 Cloudy with Light Wintry Mix 31 -0.5 30 -1 96 96 N 28 44 29.62 1003 10 16.0934 0 0
3:35 am 03:35 Cloudy with Light Wintry Mix 30 -1.3 29 -1.9 96 96 N 32 52 29.68 1005 10 16.0934 0 0
3:55 am 03:55 Cloudy with Light Wintry Mix 29 -1.9 27 -2.6 95 95 N 29 46 29.68 1005 7 11.26538 0 0
4:15 am 04:15 Windy with Snow Likely 28 -2.1 28 -2.5 97 97 N 20 31 29.68 1005 2.5 4.02335 0 0
4:35 am 04:35 Windy with Snow Likely 26 -3.3 25 -3.7 97 97 N 29 46 29.71 1006 1.5 2.41401 0.01 0.254
4:55 am 04:55 Windy with Snow Likely 25 -4 24 -4.5 96 96 N 24 39 29.68 1005 1.25 2.011675 0.02 0.508
5:15 am 05:15 Cloudy with Snow 24 -4.3 24 -4.6 98 98 N 28 44 29.68 1005 0.75 1.207005 0 0
5:35 am 05:35 Cloudy with Heavy Snow 23 -4.8 23 -5 99 99 N 25 41 29.71 1006 0.5 0.80467 0.01 0.254
5:55 am 05:55 Cloudy with Heavy Snow 23 -4.8 23 -5 99 99 N 21 33 29.68 1005 0.5 0.80467 0.03 0.762
6:15 am 06:15 Cloudy with Heavy Snow 23 -5 23 -5.1 99 99 NNW 25 41 29.71 1006 0.5 0.80467 0.01 0.254
6:35 am 06:35 Cloudy with Snow 22 -5.4 22 -5.6 99 99 N 25 41 29.71 1006 0.5 0.80467 0.02 0.508
6:55 am 06:55 Cloudy with Heavy Snow 22 -5.7 21 -6 98 98 N 23 37 29.71 1006 0.25 0.402335 0.02 0.508
7:15 am 07:15 Cloudy with Heavy Snow 21 -6 21 -6.2 99 99 N 29 46 29.71 1006 0.25 0.402335 0 0
7:35 am 07:35 Cloudy with Heavy Snow 20 -6.4 20 -6.6 99 99 N 23 37 29.71 1006 0.25 0.402335 0.01 0.254
7:55 am 07:55 Cloudy with Heavy Snow 20 -6.7 19 -7 98 98 N 26 43 29.71 1006 0.5 0.80467 0.03 0.762
8:15 am 08:15 Cloudy with Heavy Snow 19 -7 19 -7.3 98 98 NNW 23 37 29.71 1006 0.25 0.402335 0 0
8:35 am 08:35 Cloudy with Snow 19 -7 19 -7.4 97 97 N 22 35 29.71 1006 0.25 0.402335 0 0
8:55 am 08:55 Cloudy with Snow 19 -7.1 18 -7.6 96 96 NNW 23 37 29.71 1006 0.5 0.80467 0 0
9:15 am 09:15 Windy with Snow Likely 19 -7.3 18 -8 95 95 NNW 21 33 29.71 1006 0.5 0.80467 0 0
9:35 am 09:35 Windy with Snow Likely 18 -7.6 17 -8.3 95 95 NNW 24 39 29.74 1007 0.5 0.80467 0 0
9:55 am 09:55 Windy with Snow Likely 18 -7.6 17 -8.4 94 94 NNW 22 35 29.77 1008 0.75 1.207005 0 0
10:15 am 10:15 Windy with Snow Likely 18 -8 16 -8.8 94 94 NNW 24 39 29.77 1008 0.5 0.80467 0 0
10:35 am 10:35 Windy with Snow Likely 18 -8 16 -8.7 95 95 NNW 22 35 29.77 1008 0.75 1.207005 0 0
10:55 am 10:55 Cloudy with Snow 17 -8.5 15 -9.2 95 95 NNW 22 35 29.77 1008 0.5 0.80467 0 0
11:15 am 11:15 Cloudy with Snow 17 -8.5 15 -9.3 94 94 NNW 25 41 29.77 1008 0.5 0.80467 0 0
11:35 am 11:35 Cloudy with Snow 17 -8.5 15 -9.2 95 95 NNW 24 39 29.77 1008 0.25 0.402335 0 0
11:55 am 11:55 Cloudy with Snow 17 -8.5 15 -9.2 95 95 NNW 25 41 29.77 1008 0.25 0.402335 0.01 0.254
12:15 pm 12:15 Cloudy with Snow 17 -8.5 16 -9.1 95 95 NW 28 44 29.77 1008 0.25 0.402335 0 0
12:35 pm 12:35 Windy with Snow Likely 17 -8.5 15 -9.5 93 93 NNW 26 43 29.77 1008 0.5 0.80467 0 0
12:55 pm 12:55 Windy with Snow Likely 17 -8.2 15 -9.2 93 93 NNW 22 35 29.77 1008 0.75 1.207005 0 0
1:15 pm 13:15 Windy with Snow Likely 17 -8.1 15 -9.2 92 92 NW 20 31 29.77 1008 1 1.60934 0 0
1:35 pm 13:35 Windy with Snow Likely 18 -8 15 -9.2 91 91 NNW 23 37 29.77 1008 1 1.60934 0 0
1:55 pm 13:55 Windy with Snow Likely 18 -8 16 -9.1 92 92 NW 23 37 29.8 1009 0.75 1.207005 0 0
2:15 pm 14:15 Windy with Snow Likely 18 -7.8 16 -9 91 91 NW 22 35 29.8 1009 1 1.60934 0 0
2:35 pm 14:35 Windy with Snow Likely 18 -7.7 16 -9 91 91 NW 22 35 29.8 1009 1.25 2.011675 0 0
2:55 pm 14:55 Cloudy with Mist and Fog 19 -7.5 16 -9 89 89 NNW 26 43 29.8 1009 2 3.21868 0 0
3:15 pm 15:15 Cloudy with Mist and Fog 19 -7.2 17 -8.6 90 90 NNW 21 33 29.8 1009 1.75 2.816345 0 0
3:35 pm 15:35 Windy with Snow Likely 19 -7.5 16 -8.9 90 90 NNW 24 39 29.8 1009 1 1.60934 0 0
3:55 pm 15:55 Cloudy with Mist and Fog 19 -7.2 17 -8.6 90 90 NW 23 37 29.85 1011 3 4.82802 0 0
4:15 pm 16:15 Cloudy with Mist and Fog 19 -7 17 -8.5 89 89 NW 24 39 29.85 1011 4 6.43736 0 0
4:35 pm 16:35 Cloudy with Mist and Fog 19 -7.2 16 -8.7 89 89 NNW 25 41 29.85 1011 5 8.0467 0 0
4:55 pm 16:55 Cloudy with Mist and Fog 19 -7.2 16 -8.7 89 89 NW 24 39 29.88 1012 5 8.0467 0 0
5:15 pm 17:15 Cloudy 19 -7.1 16 -8.7 89 89 NNW 23 37 29.88 1012 10 16.0934 0 0
5:35 pm 17:35 Cloudy with Mist and Fog 19 -7.3 16 -9 88 88 NNW 24 39 29.88 1012 5 8.0467 0 0
5:55 pm 17:55 Cloudy with Mist and Fog 19 -7.3 16 -9.1 87 87 NNW 25 41 29.91 1013 4 6.43736 0 0
6:15 pm 18:15 Cloudy 19 -7.5 15 -9.5 86 86 NNW 22 35 29.91 1013 10 16.0934 0 0
6:35 pm 18:35 Cloudy with Mist and Fog 19 -7.5 15 -9.3 87 87 NNW 21 33 29.91 1013 5 8.0467 0 0
6:55 pm 18:55 Cloudy 19 -7.5 15 -9.5 86 86 NNW 17 28 29.94 1014 7 11.26538 0 0
7:15 pm 19:15 Cloudy 19 -7.5 15 -9.5 86 86 NNW 18 30 29.94 1014 10 16.0934 0 0
7:35 pm 19:35 Cloudy 18 -7.7 15 -9.6 86 86 NNW 21 33 29.94 1014 7 11.26538 0 0
7:55 pm 19:55 Cloudy 19 -7.5 15 -9.5 86 86 NNW 23 37 29.97 1015 10 16.0934 0 0
8:15 pm 20:15 Cloudy with Mist and Fog 18 -7.6 14 -9.8 84 84 NNW 23 37 29.97 1015 5 8.0467 0 0
8:35 pm 20:35 Cloudy 18 -7.7 14 -10 84 84 NNW 18 30 30 1016 10 16.0934 0 0
8:55 pm 20:55 Cloudy 18 -7.7 14 -10.2 82 82 NW 21 33 30 1016 10 16.0934 0 0
9:15 pm 21:15 Cloudy 18 -8 13 -10.3 84 84 NNW 21 33 30.03 1017 10 16.0934 0 0
9:35 pm 21:35 Cloudy 18 -8 13 -10.3 84 84 NNW 18 30 30.03 1017 10 16.0934 0 0
9:55 pm 21:55 Windy with Snow Likely 18 -8 14 -10.2 84 84 NNW 21 33 30.06 1018 5 8.0467 0 0
10:15 pm 22:15 Cloudy with Light Snow 18 -8 14 -10.1 85 85 NNW 18 30 30.06 1018 7 11.26538 0 0
10:35 pm 22:35 Cloudy 18 -8 14 -10 86 86 NNW 21 33 30.06 1018 7 11.26538 0 0
10:55 pm 22:55 Cloudy with Light Snow 18 -7.8 15 -9.7 86 86 NNW 16 26 30.06 1018 5 8.0467 0 0
11:15 pm 23:15 Cloudy with Light Snow 18 -7.7 15 -9.5 87 87 NNW 18 30 30.06 1018 5 8.0467 0 0
11:35 pm 23:35 Windy with Snow Likely 18 -7.7 15 -9.5 87 87 NNW 20 31 30.09 1019 7 11.26538 0 0
11:55 pm 23:55 Cloudy with Light Snow 18 -7.7 15 -9.5 87 87 NNW 17 28 30.09 1019 7 11.26538 0 0

Powered by AerisWeather